Location: Homewood
(41.1836°S, 175.9581°E)
Time: 03:43:35
(UTC+00:00)

Cosmos 1607 - Visible Passes

Search period start: 14 May 2026 00:00
Search period end: 24 May 2026 00:00
Orbit: 917 x 984 km, 65.0° (Epoch: 13 May)

Date Brightness Start Highest point End Pass type
(mag) Time Alt. Az. Time Alt. Az. Time Alt. Az.
14 May 6.6 06:32:11 10° WSW 06:36:32 20° WNW 06:40:52 10° NNW visible
14 May 7.5 18:13:16 10° NE 18:15:31 12° ENE 18:17:45 10° E visible
15 May 7.4 06:53:00 10° W 06:54:02 10° WNW 06:55:05 10° WNW visible
15 May 6.8 18:28:17 10° NNE 18:33:03 22° ENE 18:37:47 10° ESE visible
16 May 5.8 18:44:52 10° N 18:50:42 39° ENE 18:56:32 10° SE visible
17 May 6.6 05:38:34 10° WSW 05:43:26 25° WNW 05:48:14 10° NNW visible
18 May 7.3 05:58:11 10° WSW 06:00:58 13° WNW 06:03:45 10° NW visible
18 May 6.8 17:35:45 10° NNE 17:39:57 18° ENE 17:44:06 10° ESE visible
19 May 5.9 17:52:00 10° N 17:57:34 32° ENE 18:03:05 10° SE visible
20 May 4.8 18:09:07 10° NNW 18:15:19 55° ENE 18:21:30 10° SE visible
21 May 6.8 16:43:27 10° NE 16:46:51 15° ENE 16:50:14 10° ESE visible
21 May 4.0 18:26:49 10° NNW 18:33:14 90° SSW 18:39:36 10° SSE visible
22 May 6.0 16:59:13 10° NNE 17:04:26 27° ENE 17:09:37 10° SE visible
22 May 4.1 18:45:01 10° NW 18:51:17 56° SW 18:57:31 10° SSE visible
23 May 5.0 17:16:06 10° N 17:22:08 46° ENE 17:28:09 10° SE visible
